K5HAS Weather Reports


time (UTC)temp
C
wind
direction
speed
KPH
gust
KPH
rain 1hr
cm
rain 24hr
cm
rain mn
cm
humidity
%
barometer
mb
20260903211216 34 170 11.3 20.9 0.00 0.00 0.00 55 1009.8
20260903210937 34 90 12.9 20.9 0.00 0.00 0.00 57 1009.8
20260903210216 34 118 12.9 24.1 0.00 0.00 0.00 57 1009.8
20260903205942 34 112 12.9 24.1 0.00 0.00 0.00 57 1010.0
20260903205209 34 125 14.5 25.7 0.00 0.00 0.00 58 1010.0
20260903204709 34 117 14.5 25.7 0.00 0.00 0.00 58 1010.0
20260903204210 35 155 16.1 27.4 0.00 0.00 0.00 59 1010.2
20260903203931 35 132 16.1 27.4 0.00 0.00 0.00 59 1010.2
20260903203210 35 143 14.5 35.4 0.00 0.00 0.00 60 1010.2
20260903202709 35 122 14.5 35.4 0.00 0.00 0.00 59 1010.3
20260903202208 35 115 17.7 35.4 0.00 0.00 0.00 60 1010.3
20260903201708 35 163 17.7 35.4 0.00 0.00 0.00 58 1010.3
20260903201155 35 166 14.5 32.2 0.00 0.00 0.00 59 1010.2
20260903200654 35 167 16.1 29.0 0.00 0.00 0.00 59 1010.2
20260903200155 35 90 14.5 35.4 0.00 0.00 0.00 58 1010.2
20260903195921 35 169 14.5 35.4 0.00 0.00 0.00 60 1010.1
20260903195414 36 161 16.1 33.8 0.00 0.00 0.00 58 1010.1
20260903194656 36 157 19.3 35.4 0.00 0.00 0.00 59 1010.1
20260903194437 36 157 20.9 35.4 0.00 0.00 0.00 58 1010.3
20260903193657 35 170 17.7 35.4 0.00 0.00 0.00 60 1010.3
20260903193155 36 201 14.5 27.4 0.00 0.00 0.00 59 1010.3
20260903192659 36 149 14.5 29.0 0.00 0.00 0.00 58 1010.3
20260903192144 36 90 12.9 29.0 0.00 0.00 0.00 56 1010.3
20260903191638 36 116 12.9 29.0 0.00 0.00 0.00 57 1010.3
20260903191138 36 184 11.3 29.0 0.00 0.00 0.00 54 1010.4
20260903190618 36 188 9.7 16.1 0.00 0.00 0.00 55 1010.4
20260903190113 36 180 11.3 20.9 0.00 0.00 0.00 57 1010.4
20260903185602 36 90 11.3 17.7 0.00 0.00 0.00 57 1010.8
20260903185048 35 202 12.9 24.1 0.00 0.00 0.00 59 1010.8
20260903184759 35 207 14.5 25.7 0.00 0.00 0.00 58 1010.8
20260903184036 35 214 14.5 25.7 0.00 0.00 0.00 59 1010.8
20260903183529 35 218 14.5 25.7 0.00 0.00 0.00 63 1010.8
20260903183016 35 214 14.5 24.1 0.00 0.00 0.00 60 1011.0
20260903182505 35 230 12.9 20.9 0.00 0.00 0.00 59 1011.0
20260903182004 35 208 14.5 25.7 0.00 0.00 0.00 57 1011.0
20260903181502 35 205 14.5 25.7 0.00 0.00 0.00 57 1011.3
20260903181207 35 205 14.5 25.7 0.00 0.00 0.00 58 1011.3
20260903180434 35 214 12.9 25.7 0.00 0.00 0.00 59 1011.3
20260903175928 35 210 12.9 24.1 0.00 0.00 0.00 57 1011.4
20260903175420 35 232 14.5 24.1 0.00 0.00 0.00 57 1011.4
20260903175136 35 224 12.9 25.7 0.00 0.00 0.00 59 1011.4
20260903174422 35 197 11.3 25.7 0.00 0.00 0.00 60 1011.8
20260903173919 34 221 12.9 25.7 0.00 0.00 0.00 61 1011.8
20260903173422 35 197 12.9 25.7 0.00 0.00 0.00 62 1011.8
20260903173147 35 210 12.9 22.5 0.00 0.00 0.00 62 1011.9
20260903172430 34 159 12.9 24.1 0.00 0.00 0.00 61 1011.9
20260903172144 34 197 12.9 25.7 0.00 0.00 0.00 62 1011.9
20260903171417 34 164 12.9 25.7 0.00 0.00 0.00 64 1011.9
20260903170914 34 207 11.3 17.7 0.00 0.00 0.00 62 1011.9
20260903170429 34 238 12.9 0.0 0.00 0.00 0.00 65 1011.9
20260903165906 34 90 12.9 20.9 0.00 0.00 0.00 63 1011.9
20260903165406 34 187 12.9 24.1 0.00 0.00 0.00 63 1011.9
20260903164903 33 214 12.9 29.0 0.00 0.00 0.00 67 1011.9
20260903164134 33 209 14.5 29.0 0.00 0.00 0.00 64 1011.9
20260903163404 33 226 14.5 29.0 0.00 0.00 0.00 66 1011.9
20260903162344 33 213 14.5 25.7 0.00 0.00 0.00 68 1011.9
20260903161830 33 190 12.9 24.1 0.00 0.00 0.00 68 1011.9
20260903161604 33 178 14.5 22.5 0.00 0.00 0.00 70 1011.9
20260903160831 33 206 14.5 27.4 0.00 0.00 0.00 72 1011.9
20260903160330 32 210 14.5 27.4 0.00 0.00 0.00 72 1011.9
20260903155831 32 215 14.5 27.4 0.00 0.00 0.00 73 1012.0
20260903155329 32 216 14.5 27.4 0.00 0.00 0.00 75 1012.0
20260903154830 32 217 14.5 24.1 0.00 0.00 0.00 75 1012.0
20260903154558 32 218 14.5 24.1 0.00 0.00 0.00 76 1012.1
20260903154036 32 211 16.1 25.7 0.00 0.00 0.00 74 1012.1
20260903153305 32 218 14.5 25.7 0.00 0.00 0.00 77 1012.1
20260903152306 31 229 12.9 24.1 0.00 0.00 0.00 79 1012.3
20260903151801 31 214 14.5 24.1 0.00 0.00 0.00 80 1012.3
20260903151301 31 224 16.1 25.7 0.00 0.00 0.00 80 1012.3
20260903150803 31 225 17.7 25.7 0.00 0.00 0.00 81 1012.3
20260903150302 31 217 16.1 25.7 0.00 0.00 0.00 79 1012.3
20260903145802 31 219 14.5 24.1 0.00 0.00 0.00 82 1012.3
20260903145306 30 217 16.1 24.1 0.00 0.00 0.00 81 1012.3
20260903144803 30 224 17.7 24.1 0.00 0.00 0.00 81 1012.3
20260903144303 30 215 16.1 24.1 0.00 0.00 0.00 83 1012.4
20260903144017 30 215 14.5 22.5 0.00 0.00 0.00 85 1012.4
20260903143252 30 222 14.5 22.5 0.00 0.00 0.00 85 1012.4
20260903142752 30 220 14.5 24.1 0.00 0.00 0.00 86 1012.4
20260903142523 30 220 11.3 24.1 0.00 0.00 0.00 85 1012.4
20260903142013 30 224 12.9 20.9 0.00 0.00 0.00 86 1012.4
20260903141519 29 210 11.3 22.5 0.00 0.00 0.00 86 1012.4
20260903141013 29 211 9.7 22.5 0.00 0.00 0.00 87 1012.4
20260903140251 28 201 8.0 22.5 0.00 0.00 0.00 87 1012.4
20260903135752 28 199 6.4 14.5 0.00 0.00 0.00 88 1012.4
20260903135255 28 201 4.8 11.3 0.00 0.00 0.00 88 1012.4
20260903134250 28 159 1.6 8.0 0.00 0.00 0.00 88 1012.4
20260903133231 28 155 0.0 0.0 0.00 0.00 0.00 89 1012.4
20260903132720 28 155 0.0 6.4 0.00 0.00 0.00 89 1012.3
20260903132436 27 155 0.0 6.4 0.00 0.00 0.00 89 1012.3
20260903131704 27 155 1.6 6.4 0.00 0.00 0.00 89 1012.3
20260903131200 27 155 3.2 6.4 0.00 0.00 0.00 89 1011.9
20260903130700 27 155 3.2 4.8 0.00 0.00 0.00 89 1011.9
20260903130159 27 156 3.2 4.8 0.00 0.00 0.00 90 1011.9
20260903125920 27 156 1.6 4.8 0.00 0.00 0.00 89 1011.9
20260903125159 27 156 3.2 8.0 0.00 0.00 0.00 89 1011.9
20260903124657 27 157 4.8 8.0 0.00 0.00 0.00 89 1011.9
20260903124157 27 167 3.2 8.0 0.00 0.00 0.00 89 1011.9
20260903123657 28 184 3.2 14.5 0.00 0.00 0.00 89 1011.9
20260903123156 28 191 4.8 14.5 0.00 0.00 0.00 89 1011.9
20260903122656 28 184 8.0 14.5 0.00 0.00 0.00 89 1011.5
20260903122152 28 209 6.4 14.5 0.00 0.00 0.00 89 1011.5
20260903121650 27 213 4.8 12.9 0.00 0.00 0.00 90 1011.5
20260903121148 27 207 3.2 11.3 0.00 0.00 0.00 90 1011.5
20260903120649 27 203 3.2 8.0 0.00 0.00 0.00 90 1011.5
20260903120137 27 200 3.2 8.0 0.00 0.00 0.00 89 1011.5
20260903115624 27 183 1.6 8.0 0.00 0.00 0.00 89 1011.4
20260903115122 27 182 3.2 8.0 0.00 0.00 0.00 89 1011.4
20260903114839 27 186 3.2 8.0 0.00 0.00 0.00 89 1011.4
20260903114341 27 180 3.2 9.7 0.00 0.00 0.00 89 1011.4
20260903113845 27 176 3.2 9.7 0.00 0.00 0.00 89 1011.4
20260903113121 27 182 3.2 9.7 0.00 0.00 0.00 89 1011.4
20260903112620 27 179 3.2 9.7 0.00 0.00 0.00 89 1011.4
20260903112120 27 186 4.8 9.7 0.00 0.00 0.00 89 1011.4
20260903111608 27 90 4.8 9.7 0.00 0.00 0.00 89 1011.4
20260903111100 27 167 4.8 9.7 0.00 0.00 0.00 89 1011.4
20260903110556 27 176 3.2 8.0 0.00 0.00 0.00 89 1011.4
20260903110053 27 90 3.2 8.0 0.00 0.00 0.00 89 1011.4
20260903105551 27 169 3.2 8.0 0.00 0.00 0.00 89 1011.4
20260903105051 27 90 3.2 12.9 0.00 0.00 0.00 89 1011.4
20260903104551 27 176 3.2 12.9 0.00 0.00 0.00 89 1011.4
20260903104315 27 90 6.4 12.9 0.00 0.00 0.00 89 1011.3
20260903103550 27 170 6.4 14.5 0.00 0.00 0.00 88 1011.3
20260903103051 27 90 6.4 14.5 0.00 0.00 0.00 88 1011.3
20260903102551 27 170 6.4 12.9 0.00 0.00 0.00 88 1011.3
20260903102052 27 170 4.8 12.9 0.00 0.00 0.00 88 1011.3
20260903101552 27 174 4.8 12.9 0.00 0.00 0.00 88 1011.3
20260903101046 27 161 4.8 12.9 0.00 0.00 0.00 88 1011.3
20260903100536 27 172 6.4 12.9 0.00 0.00 0.00 89 1011.3
20260903100304 27 176 6.4 17.7 0.00 0.00 0.00 89 1011.3
20260903095535 27 166 6.4 17.7 0.00 0.00 0.00 89 1011.2
20260903095034 27 173 8.0 14.5 0.00 0.00 0.00 89 1011.2
20260903094536 27 171 8.0 14.5 0.00 0.00 0.00 89 1011.2
20260903094035 27 166 6.4 14.5 0.00 0.00 0.00 89 1011.3
20260903093755 27 161 6.4 12.9 0.00 0.00 0.00 89 1011.3
20260903093300 27 90 6.4 12.9 0.00 0.00 0.00 89 1011.3
20260903092536 27 90 6.4 11.3 0.00 0.00 0.00 88 1011.4
20260903092034 27 170 4.8 12.9 0.00 0.00 0.00 88 1011.4
20260903091256 27 148 6.4 12.9 0.00 0.00 0.00 88 1011.4
20260903090533 27 155 6.4 14.5 0.00 0.00 0.00 88 1011.4
20260903090028 27 90 8.0 14.5 0.00 0.00 0.00 88 1011.4
20260903085518 27 165 6.4 14.5 0.00 0.00 0.00 88 1011.3
20260903085007 27 157 8.0 16.1 0.00 0.00 0.00 88 1011.3
20260903084502 27 161 8.0 16.1 0.00 0.00 0.00 88 1011.3
20260903083445 27 186 6.4 12.9 0.00 0.00 0.00 88 1011.3
20260903082936 27 171 6.4 14.5 0.00 0.00 0.00 88 1011.4
20260903082425 27 90 8.0 14.5 0.00 0.00 0.00 88 1011.4
20260903081926 27 160 9.7 16.1 0.00 0.00 0.00 87 1011.4
20260903081423 27 166 11.3 16.1 0.00 0.00 0.00 87 1011.3
20260903080920 27 155 9.7 16.1 0.00 0.00 0.00 87 1011.3
20260903080420 27 167 9.7 14.5 0.00 0.00 0.00 87 1011.3
20260903075922 27 158 11.3 17.7 0.00 0.00 0.00 87 1011.1
20260903075422 27 133 11.3 17.7 0.00 0.00 0.00 87 1011.1
20260903074919 27 90 11.3 17.7 0.00 0.00 0.00 88 1011.1
20260903074420 27 90 9.7 16.1 0.00 0.00 0.00 88 1011.3
20260903073921 27 166 8.0 14.5 0.00 0.00 0.00 87 1011.3
20260903073421 27 166 6.4 12.9 0.00 0.00 0.00 87 1011.3
20260903072910 27 90 6.4 11.3 0.00 0.00 0.00 87 1011.3
20260903072412 27 165 6.4 12.9 0.00 0.00 0.00 87 1011.3
20260903071909 27 161 6.4 12.9 0.00 0.00 0.00 87 1011.3
20260903071410 27 164 6.4 12.9 0.00 0.00 0.00 87 1011.3
20260903070910 27 90 8.0 16.1 0.00 0.00 0.00 87 1011.3
20260903070409 27 90 9.7 16.1 0.00 0.00 0.00 87 1011.3
20260903065909 27 181 9.7 14.5 0.00 0.00 0.00 87 1011.7
20260903065409 27 90 6.4 14.5 0.00 0.00 0.00 87 1011.7
20260903065129 27 90 6.4 14.5 0.00 0.00 0.00 86 1011.7
20260903064407 28 90 6.4 14.5 0.00 0.00 0.00 87 1011.5
20260903063905 28 168 8.0 17.7 0.00 0.00 0.00 87 1011.5
20260903063405 28 155 9.7 17.7 0.00 0.00 0.00 86 1011.5
20260903063126 28 174 9.7 17.7 0.00 0.00 0.00 86 1011.7
20260903062402 28 170 11.3 20.9 0.00 0.00 0.00 86 1011.7
20260903061902 28 174 12.9 20.9 0.00 0.00 0.00 86 1011.7
20260903061400 28 160 11.3 20.9 0.00 0.00 0.00 86 1011.7
20260903060859 28 157 11.3 17.7 0.00 0.00 0.00 86 1011.7
20260903060359 28 90 12.9 20.9 0.00 0.00 0.00 86 1011.7
20260903055857 28 166 11.3 20.9 0.00 0.00 0.00 86 1011.6
20260903055357 28 164 11.3 20.9 0.00 0.00 0.00 87 1011.6
20260903054851 28 176 11.3 20.9 0.00 0.00 0.00 87 1011.6
20260903054342 28 169 9.7 20.9 0.00 0.00 0.00 87 1011.5
20260903054056 28 126 11.3 20.9 0.00 0.00 0.00 87 1011.5
20260903053319 28 141 11.3 22.5 0.00 0.00 0.00 87 1011.5
20260903053027 28 142 12.9 22.5 0.00 0.00 0.00 87 1011.4
20260903052306 28 160 12.9 24.1 0.00 0.00 0.00 87 1011.4
20260903052023 28 147 12.9 24.1 0.00 0.00 0.00 87 1011.4
20260903051302 28 90 14.5 19.3 0.00 0.00 0.00 87 1011.4
20260903051027 28 174 14.5 22.5 0.00 0.00 0.00 87 1011.4
20260903050300 28 154 14.5 22.5 0.00 0.00 0.00 87 1011.4
20260903045759 28 90 12.9 20.9 0.00 0.00 0.00 87 1011.5
20260903045300 28 166 12.9 20.9 0.00 0.00 0.00 87 1011.5
20260903045025 28 90 11.3 20.9 0.00 0.00 0.00 87 1011.5
20260903044259 28 90 11.3 17.7 0.00 0.00 0.00 87 1011.4
20260903043801 28 158 12.9 19.3 0.00 0.00 0.00 87 1011.4
20260903043259 28 90 12.9 19.3 0.00 0.00 0.00 87 1011.4
20260903043019 28 90 12.9 19.3 0.00 0.00 0.00 87 1011.4
20260903042305 28 145 11.3 19.3 0.00 0.00 0.00 87 1011.4
20260903041758 28 159 9.7 16.1 0.00 0.00 0.00 87 1011.4
20260903041255 28 159 8.0 16.1 0.00 0.00 0.00 87 1011.4
20260903040802 28 166 8.0 16.1 0.00 0.00 0.00 87 1011.4
20260903040252 28 152 8.0 17.7 0.00 0.00 0.00 87 1011.4
20260903035751 28 150 8.0 17.7 0.00 0.00 0.00 86 1011.4
20260903035251 28 155 8.0 14.5 0.00 0.00 0.00 86 1011.4
20260903034749 28 90 9.7 17.7 0.00 0.00 0.00 86 1011.4
20260903034248 28 138 9.7 17.7 0.00 0.00 0.00 86 1011.4
20260903033959 28 147 9.7 19.3 0.00 0.00 0.00 86 1011.4
20260903033504 28 151 12.9 19.3 0.00 0.00 0.00 86 1011.4
20260903032721 28 155 14.5 20.9 0.00 0.00 0.00 86 1011.0
20260903032216 28 159 14.5 20.9 0.00 0.00 0.00 86 1011.0
20260903031710 28 143 12.9 20.9 0.00 0.00 0.00 86 1011.0
20260903031200 28 145 12.9 20.9 0.00 0.00 0.00 86 1010.8
20260903030926 28 164 14.5 24.1 0.00 0.00 0.00 85 1010.8
20260903030428 28 90 14.5 24.1 0.00 0.00 0.00 86 1010.8
20260903025701 28 159 12.9 20.9 0.00 0.00 0.00 86 1010.9
20260903025157 28 157 12.9 20.9 0.00 0.00 0.00 85 1010.9
20260903024656 28 161 12.9 20.9 0.00 0.00 0.00 85 1010.9
20260903024156 28 164 12.9 19.3 0.00 0.00 0.00 85 1010.8
20260903023923 28 90 12.9 19.3 0.00 0.00 0.00 85 1010.8
20260903023157 28 168 11.3 20.9 0.00 0.00 0.00 85 1010.8
20260903022927 28 90 12.9 20.9 0.00 0.00 0.00 85 1010.7
20260903022157 28 90 12.9 24.1 0.00 0.00 0.00 85 1010.7
20260903021929 28 155 12.9 24.1 0.00 0.00 0.00 85 1010.7
20260903021154 28 90 14.5 24.1 0.00 0.00 0.00 85 1010.4
20260903020648 28 90 14.5 24.1 0.00 0.00 0.00 84 1010.4
20260903020142 28 162 14.5 24.1 0.00 0.00 0.00 84 1010.4
20260903015642 28 151 16.1 24.1 0.00 0.00 0.00 84 1010.3
20260903015403 28 90 16.1 24.1 0.00 0.00 0.00 84 1010.3
20260903014641 29 90 17.7 29.0 0.00 0.00 0.00 84 1010.3
20260903014143 29 166 17.7 29.0 0.00 0.00 0.00 84 1010.3
20260903013641 29 153 17.7 29.0 0.00 0.00 0.00 84 1010.3
20260903013140 29 90 17.7 29.0 0.00 0.00 0.00 84 1010.3
20260903012640 29 176 17.7 33.8 0.00 0.00 0.00 83 1010.1
20260903011640 29 90 22.5 33.8 0.00 0.00 0.00 83 1010.1
20260903011144 29 164 22.5 35.4 0.00 0.00 0.00 83 1009.9
20260903010635 29 140 20.9 35.4 0.00 0.00 0.00 82 1009.9
20260903010117 29 156 20.9 41.8 0.00 0.00 0.00 81 1009.9
20260903005841 30 153 22.5 41.8 0.00 0.00 0.00 81 1009.8
20260903005116 30 162 24.1 38.6 0.00 0.00 0.00 80 1009.8
20260903004846 30 170 24.1 38.6 0.00 0.00 0.00 79 1009.8
20260903004116 30 143 25.7 41.8 0.00 0.00 0.00 79 1009.7
20260903003615 30 136 24.1 41.8 0.00 0.00 0.00 80 1009.7
20260903003112 30 90 22.5 38.6 0.00 0.00 0.00 79 1009.7
20260903002613 30 90 24.1 40.2 0.00 0.00 0.00 79 1009.8
20260903002108 30 159 24.1 40.2 0.00 0.00 0.00 77 1009.8
20260903001604 31 170 24.1 41.8 0.00 0.00 0.00 78 1009.8
20260903001104 31 157 22.5 41.8 0.00 0.00 0.00 77 1009.8
20260903000606 31 166 24.1 41.8 0.00 0.00 0.00 77 1009.8
20260903000104 31 157 24.1 41.8 0.00 0.00 0.00 76 1009.8
20260902235605 31 196 24.1 41.8 0.00 0.00 0.00 76 1009.8
20260902235325 31 145 24.1 41.8 0.00 0.00 0.00 76 1009.8
20260902234609 31 162 24.1 40.2 0.00 0.00 0.00 76 1009.8
20260902234105 31 90 24.1 41.8 0.00 0.00 0.00 76 1009.6
20260902233606 31 90 25.7 41.8 0.00 0.00 0.00 75 1009.6
20260902233058 32 162 27.4 41.8 0.00 0.00 0.00 73 1009.6
20260902232543 32 90 25.7 40.2 0.00 0.00 0.00 72 1009.5
20260902232033 32 148 22.5 40.2 0.00 0.00 0.00 70 1009.5
20260902231527 33 127 22.5 37.0 0.00 0.00 0.00 69 1009.5
20260902231021 33 159 24.1 38.6 0.00 0.00 0.00 66 1009.4
20260902230749 33 151 24.1 41.8 0.00 0.00 0.00 63 1009.4
20260902230231 33 157 24.1 41.8 0.00 0.00 0.00 63 1009.4
20260902225509 34 177 22.5 37.0 0.00 0.00 0.00 63 1009.3
20260902225005 34 90 22.5 35.4 0.00 0.00 0.00 62 1009.3
20260902224507 34 128 22.5 35.4 0.00 0.00 0.00 62 1009.3
20260902224006 34 159 24.1 35.4 0.00 0.00 0.00 60 1009.3
20260902223509 35 173 20.9 35.4 0.00 0.00 0.00 60 1009.3
20260902222506 34 155 19.3 32.2 0.00 0.00 0.00 57 1009.3
20260902222005 34 159 19.3 32.2 0.00 0.00 0.00 56 1009.3
20260902221506 35 192 17.7 37.0 0.00 0.00 0.00 57 1009.3
20260902221009 35 198 17.7 37.0 0.00 0.00 0.00 56 1009.3
20260902220505 35 155 17.7 32.2 0.00 0.00 0.00 58 1009.3
20260902220004 35 167 17.7 32.2 0.00 0.00 0.00 58 1009.3
20260902215452 35 170 17.7 37.0 0.00 0.00 0.00 59 1009.3
20260902214951 35 155 19.3 37.0 0.00 0.00 0.00 59 1009.3
20260902214437 35 151 19.3 37.0 0.00 0.00 0.00 59 1009.3
20260902213926 35 153 17.7 37.0 0.00 0.00 0.00 58 1009.3
20260902213417 35 195 16.1 33.8 0.00 0.00 0.00 58 1009.3
20260902212917 35 194 14.5 30.6 0.00 0.00 0.00 60 1009.5
20260902212420 35 176 16.1 30.6 0.00 0.00 0.00 58 1009.5